Hourly Weather Igls

Today, 13 July, Monday

Time Temperature Precipitation Wind Pressure Humidity
00:00 +11°C° 0 mm 1 mps 689 mmHg 92%
01:00 +11°C° 0 mm 1 mps 689 mmHg 91%
02:00 +10°C° 0 mm 1 mps 689 mmHg 91%
03:00 +10°C° 0 mm 1 mps 688 mmHg 91%
04:00 +9°C° 0 mm 0 mps 688 mmHg 91%
05:00 +11°C° 0 mm 0 mps 688 mmHg 84%
06:00 +13°C° 0 mm 0 mps 689 mmHg 77%
07:00 +16°C° 0 mm 0 mps 689 mmHg 67%
08:00 +19°C° 0 mm 1 mps 689 mmHg 60%
09:00 +21°C° 0 mm 1 mps 689 mmHg 54%
10:00 +23°C° 0 mm 1 mps 689 mmHg 47%
11:00 +23°C° 0 mm 2 mps 689 mmHg 43%
12:00 +24°C° 0 mm 2 mps 689 mmHg 40%
13:00 +25°C° 0 mm 2 mps 689 mmHg 36%
14:00 +24°C° 0 mm 2 mps 689 mmHg 39%
15:00 +24°C° 0 mm 2 mps 688 mmHg 41%
16:00 +24°C° 0 mm 3 mps 688 mmHg 43%
17:00 +21°C° 0 mm 2 mps 687 mmHg 53%
18:00 +20°C° 0 mm 2 mps 687 mmHg 64%
19:00 +19°C° 0 mm 1 mps 687 mmHg 74%
20:00 +16°C° 0 mm 1 mps 687 mmHg 81%
21:00 +14°C° 0 mm 1 mps 686 mmHg 88%
22:00 +11°C° 0 mm 0 mps 686 mmHg 94%
23:00 +11°C° 0 mm 0 mps 686 mmHg 94%

Tomorrow, 14 July, Tuesday

Time Temperature Precipitation Wind Pressure Humidity
00:00 +11°C° 0 mm 0 mps 686 mmHg 94%
01:00 +11°C° 0 mm 0 mps 686 mmHg 94%
02:00 +11°C° 0 mm 0 mps 685 mmHg 94%
03:00 +11°C° 0 mm 0 mps 685 mmHg 94%
04:00 +11°C° 0 mm 0 mps 685 mmHg 94%
05:00 +12°C° 0 mm 0 mps 685 mmHg 89%
06:00 +14°C° 0 mm 0 mps 685 mmHg 84%
07:00 +15°C° 0 mm 0 mps 686 mmHg 78%
08:00 +17°C° 0.2 mm 0 mps 686 mmHg 72%
09:00 +20°C° 0.2 mm 1 mps 686 mmHg 66%
10:00 +22°C° 0.2 mm 1 mps 686 mmHg 60%
11:00 +22°C° 0.6 mm 1 mps 685 mmHg 60%
12:00 +22°C° 0.6 mm 1 mps 685 mmHg 60%
13:00 +22°C° 0.6 mm 1 mps 685 mmHg 61%
14:00 +22°C° 1 mm 1 mps 684 mmHg 66%
15:00 +21°C° 1 mm 1 mps 684 mmHg 71%
16:00 +21°C° 1 mm 1 mps 684 mmHg 76%
17:00 +20°C° 0.9 mm 1 mps 684 mmHg 81%
18:00 +19°C° 0.9 mm 1 mps 684 mmHg 86%
19:00 +18°C° 0.9 mm 1 mps 684 mmHg 91%
20:00 +16°C° 0.6 mm 1 mps 684 mmHg 92%
21:00 +14°C° 0.6 mm 0 mps 684 mmHg 93%
22:00 +13°C° 0.6 mm 0 mps 684 mmHg 94%
23:00 +13°C° 0.2 mm 0 mps 684 mmHg 94%

Day after tomorrow, 15 July, Wednesday

Time Temperature Precipitation Wind Pressure Humidity
00:00 +14°C° 0.2 mm 1 mps 684 mmHg 94%
01:00 +13°C° 0.2 mm 1 mps 683 mmHg 94%
02:00 +13°C° 0 mm 1 mps 683 mmHg 94%
03:00 +13°C° 0 mm 1 mps 683 mmHg 94%
04:00 +13°C° 0 mm 1 mps 683 mmHg 94%
05:00 +13°C° 0 mm 0 mps 683 mmHg 92%
06:00 +14°C° 0 mm 0 mps 684 mmHg 90%
07:00 +15°C° 0 mm 0 mps 684 mmHg 88%
08:00 +16°C° 0.4 mm 0 mps 684 mmHg 85%
09:00 +19°C° 0.4 mm 1 mps 684 mmHg 82%
10:00 +20°C° 0.4 mm 1 mps 684 mmHg 79%
11:00 +20°C° 1.3 mm 1 mps 684 mmHg 81%
12:00 +20°C° 1.3 mm 1 mps 684 mmHg 83%
13:00 +20°C° 1.3 mm 1 mps 684 mmHg 85%
14:00 +19°C° 1.7 mm 1 mps 684 mmHg 88%
15:00 +18°C° 1.7 mm 1 mps 684 mmHg 91%
16:00 +18°C° 1.7 mm 1 mps 684 mmHg 94%
17:00 +16°C° 1.3 mm 1 mps 684 mmHg 94%
18:00 +15°C° 1.3 mm 1 mps 684 mmHg 95%
19:00 +14°C° 1.3 mm 0 mps 684 mmHg 95%
20:00 +14°C° 0.2 mm 0 mps 684 mmHg 95%
21:00 +13°C° 0.2 mm 0 mps 685 mmHg 96%
22:00 +13°C° 0.2 mm 0 mps 685 mmHg 96%
23:00 +13°C° 0.1 mm 0 mps 685 mmHg 96%

16 July, Thursday

Time Temperature Precipitation Wind Pressure Humidity
00:00 +13°C° 0.1 mm 0 mps 685 mmHg 97%
01:00 +13°C° 0.1 mm 0 mps 685 mmHg 97%
02:00 +12°C° 0 mm 0 mps 685 mmHg 97%
03:00 +12°C° 0 mm 0 mps 685 mmHg 98%
04:00 +12°C° 0 mm 0 mps 684 mmHg 98%
05:00 +12°C° 0.1 mm 0 mps 685 mmHg 98%
06:00 +14°C° 0.1 mm 1 mps 685 mmHg 97%
07:00 +14°C° 0.1 mm 1 mps 685 mmHg 97%
08:00 +15°C° 0.3 mm 1 mps 685 mmHg 95%
09:00 +16°C° 0.3 mm 1 mps 685 mmHg 93%
10:00 +16°C° 0.3 mm 1 mps 686 mmHg 91%
11:00 +18°C° 0.4 mm 1 mps 686 mmHg 89%
12:00 +17°C° 0.4 mm 2 mps 686 mmHg 87%
13:00 +18°C° 0.4 mm 2 mps 686 mmHg 84%
14:00 +18°C° 0.3 mm 2 mps 686 mmHg 85%
15:00 +18°C° 0.3 mm 2 mps 685 mmHg 85%
16:00 +17°C° 0.3 mm 2 mps 685 mmHg 85%
17:00 +17°C° 0.2 mm 2 mps 685 mmHg 88%
18:00 +16°C° 0.2 mm 2 mps 685 mmHg 90%
19:00 +15°C° 0.2 mm 1 mps 685 mmHg 93%
20:00 +15°C° 0 mm 1 mps 686 mmHg 94%
21:00 +14°C° 0 mm 1 mps 686 mmHg 95%
22:00 +14°C° 0 mm 1 mps 686 mmHg 96%
23:00 +14°C° 0 mm 1 mps 686 mmHg 96%

17 July, Friday

Time Temperature Precipitation Wind Pressure Humidity
00:00 +14°C° 0 mm 1 mps 686 mmHg 97%
01:00 +13°C° 0 mm 1 mps 686 mmHg 97%
02:00 +13°C° 0.1 mm 1 mps 686 mmHg 97%
03:00 +13°C° 0.1 mm 1 mps 686 mmHg 98%
04:00 +13°C° 0.1 mm 1 mps 685 mmHg 98%
05:00 +13°C° 0 mm 1 mps 686 mmHg 97%
06:00 +14°C° 0 mm 1 mps 686 mmHg 96%
07:00 +14°C° 0 mm 1 mps 686 mmHg 94%
08:00 +15°C° 0.2 mm 1 mps 686 mmHg 90%
09:00 +16°C° 0.2 mm 1 mps 686 mmHg 86%
10:00 +17°C° 0.2 mm 2 mps 687 mmHg 81%
11:00 +18°C° 0.3 mm 2 mps 687 mmHg 76%
12:00 +19°C° 0.3 mm 2 mps 687 mmHg 71%
13:00 +20°C° 0.3 mm 2 mps 687 mmHg 66%
14:00 +20°C° 0.2 mm 2 mps 687 mmHg 65%
15:00 +20°C° 0.2 mm 2 mps 686 mmHg 65%
16:00 +20°C° 0.2 mm 2 mps 686 mmHg 64%
17:00 +19°C° 0.1 mm 2 mps 686 mmHg 70%
18:00 +18°C° 0.1 mm 2 mps 686 mmHg 76%
19:00 +17°C° 0.1 mm 2 mps 686 mmHg 82%
20:00 +16°C° 0.1 mm 1 mps 686 mmHg 87%
21:00 +14°C° 0.1 mm 1 mps 686 mmHg 92%
22:00 +13°C° 0.1 mm 1 mps 686 mmHg 96%
23:00 +12°C° 0 mm 1 mps 686 mmHg 96%

18 July, Saturday

Time Temperature Precipitation Wind Pressure Humidity
00:00 +12°C° 0 mm 1 mps 686 mmHg 96%
01:00 +12°C° 0 mm 1 mps 686 mmHg 96%
02:00 +12°C° 0 mm 1 mps 686 mmHg 96%
03:00 +11°C° 0 mm 1 mps 686 mmHg 96%
04:00 +11°C° 0 mm 1 mps 686 mmHg 96%
05:00 +13°C° 0 mm 1 mps 686 mmHg 92%
06:00 +14°C° 0 mm 1 mps 686 mmHg 89%
07:00 +15°C° 0 mm 0 mps 686 mmHg 85%
08:00 +19°C° 0 mm 1 mps 687 mmHg 75%
09:00 +21°C° 0 mm 1 mps 687 mmHg 65%
10:00 +23°C° 0 mm 1 mps 687 mmHg 55%
11:00 +23°C° 0 mm 2 mps 687 mmHg 53%
12:00 +24°C° 0 mm 2 mps 687 mmHg 51%
13:00 +25°C° 0 mm 2 mps 687 mmHg 49%
14:00 +24°C° 0.1 mm 2 mps 686 mmHg 53%
15:00 +24°C° 0.1 mm 2 mps 686 mmHg 57%
16:00 +24°C° 0.1 mm 2 mps 686 mmHg 60%
17:00 +21°C° 0.2 mm 2 mps 686 mmHg 70%
18:00 +20°C° 0.2 mm 2 mps 686 mmHg 79%
19:00 +20°C° 0.2 mm 1 mps 686 mmHg 88%
20:00 +18°C° 0 mm 1 mps 686 mmHg 91%
21:00 +16°C° 0 mm 1 mps 686 mmHg 94%
22:00 +13°C° 0 mm 0 mps 686 mmHg 97%
23:00 +14°C° 0 mm 1 mps 686 mmHg 97%
Show more